Time,TemperatureF,DewpointF,PressureIn,WindDirection,WindDirectionDegrees,WindSpeedMPH,WindSpeedGustMPH,Humidity,HourlyPrecipIn,Conditions,Clouds,dailyrainin,SoftwareType,DateUTC
2013-04-14 00:03:00,46.0,41.0,-100.00,ESE,105,0.0,0.0,82,-99.99,,,-99.99,,2013-04-14 05:03:00,
2013-04-14 00:12:00,46.0,41.0,-100.00,East,90,1.0,1.0,83,-99.99,,,-99.99,,2013-04-14 05:12:00,
2013-04-14 00:22:00,46.0,41.0,-100.00,East,90,1.0,1.0,83,-99.99,,,-99.99,,2013-04-14 05:22:00,
2013-04-14 00:43:00,45.0,40.0,-100.00,East,85,0.0,0.0,82,-99.99,,,-99.99,,2013-04-14 05:43:00,
2013-04-14 00:52:00,45.0,40.0,-100.00,South,175,3.0,3.0,83,-99.99,,,-99.99,,2013-04-14 05:52:00,
2013-04-14 01:02:00,45.0,40.0,-100.00,South,175,3.0,3.0,83,-99.99,,,-99.99,,2013-04-14 06:02:00,
2013-04-14 01:12:00,47.0,42.0,-100.00,SSE,165,6.0,10.0,83,-99.99,,,-99.99,,2013-04-14 06:12:00,
2013-04-14 01:22:00,50.0,41.0,-100.00,SSE,155,6.0,8.0,70,-99.99,,,-99.99,,2013-04-14 06:22:00,
2013-04-14 01:32:00,50.0,41.0,-100.00,SSE,155,6.0,8.0,70,-99.99,,,-99.99,,2013-04-14 06:32:00,
2013-04-14 01:42:00,53.0,38.0,-100.00,SSE,165,6.0,9.0,58,-99.99,,,-99.99,,2013-04-14 06:42:00,
2013-04-14 01:52:00,53.0,37.0,-100.00,SSE,165,6.0,9.0,55,-99.99,,,-99.99,,2013-04-14 06:52:00,
2013-04-14 02:02:00,53.0,37.0,-100.00,SSE,165,6.0,9.0,55,-99.99,,,-99.99,,2013-04-14 07:02:00,
2013-04-14 02:12:00,53.0,37.0,-100.00,SE,135,8.0,10.0,54,-99.99,,,-99.99,,2013-04-14 07:12:00,
2013-04-14 02:22:00,53.0,37.0,-100.00,SSE,155,8.0,10.0,54,-99.99,,,-99.99,,2013-04-14 07:22:00,
2013-04-14 02:32:00,53.0,37.0,-100.00,SSE,155,8.0,10.0,54,-99.99,,,-99.99,,2013-04-14 07:32:00,
2013-04-14 02:42:00,53.0,37.0,-100.00,SE,145,4.0,6.0,54,-99.99,,,-99.99,,2013-04-14 07:42:00,
2013-04-14 02:52:00,53.0,37.0,-100.00,SSE,155,4.0,6.0,54,-99.99,,,-99.99,,2013-04-14 07:52:00,
2013-04-14 03:02:00,53.0,37.0,-100.00,SSE,155,4.0,6.0,54,-99.99,,,-99.99,,2013-04-14 08:02:00,
2013-04-14 03:12:00,53.0,37.0,-100.00,SE,145,3.0,4.0,54,-99.99,,,-99.99,,2013-04-14 08:12:00,
2013-04-14 03:22:00,53.0,37.0,-100.00,SE,140,4.0,6.0,54,-99.99,,,-99.99,,2013-04-14 08:22:00,
2013-04-14 03:32:00,53.0,37.0,-100.00,SE,140,4.0,6.0,54,-99.99,,,-99.99,,2013-04-14 08:32:00,
2013-04-14 03:42:00,53.0,37.0,-100.00,SE,145,3.0,4.0,54,-99.99,,,-99.99,,2013-04-14 08:42:00,
2013-04-14 03:52:00,53.0,37.0,-100.00,ESE,105,0.0,1.0,55,-99.99,,,-99.99,,2013-04-14 08:52:00,
2013-04-14 04:03:00,53.0,37.0,-100.00,ESE,105,0.0,1.0,55,-99.99,,,-99.99,,2013-04-14 09:03:00,
2013-04-14 04:12:00,52.0,37.0,-100.00,SE,140,0.0,0.0,57,-99.99,,,-99.99,,2013-04-14 09:12:00,
2013-04-14 04:22:00,50.0,37.0,-100.00,South,175,1.0,2.0,61,-99.99,,,-99.99,,2013-04-14 09:22:00,
2013-04-14 04:33:00,50.0,37.0,-100.00,South,175,1.0,2.0,61,-99.99,,,-99.99,,2013-04-14 09:33:00,
2013-04-14 04:42:00,49.0,37.0,-100.00,SSE,155,0.0,0.0,65,-99.99,,,-99.99,,2013-04-14 09:42:00,
2013-04-14 04:54:00,47.0,37.0,-100.00,South,170,0.0,1.0,68,-99.99,,,-99.99,,2013-04-14 09:54:00,
2013-04-14 05:03:00,47.0,37.0,-100.00,South,170,0.0,1.0,68,-99.99,,,-99.99,,2013-04-14 10:03:00,
2013-04-14 05:12:00,46.0,38.0,-100.00,SE,125,0.0,1.0,72,-99.99,,,-99.99,,2013-04-14 10:12:00,
2013-04-14 05:23:00,45.0,38.0,-100.00,SSE,160,0.0,0.0,75,-99.99,,,-99.99,,2013-04-14 10:23:00,
2013-04-14 05:33:00,45.0,38.0,-100.00,SSE,160,0.0,0.0,75,-99.99,,,-99.99,,2013-04-14 10:33:00,
2013-04-14 05:42:00,45.0,38.0,-100.00,SE,140,3.0,4.0,78,-99.99,,,-99.99,,2013-04-14 10:42:00,
2013-04-14 05:52:00,46.0,40.0,-100.00,SSE,165,3.0,4.0,81,-99.99,,,-99.99,,2013-04-14 10:52:00,
2013-04-14 06:02:00,46.0,40.0,-100.00,SSE,165,3.0,4.0,81,-99.99,,,-99.99,,2013-04-14 11:02:00,
2013-04-14 06:12:00,51.0,40.0,-100.00,SSE,155,6.0,10.0,67,-99.99,,,-99.99,,2013-04-14 11:12:00,
2013-04-14 06:22:00,53.0,39.0,-100.00,South,175,9.0,10.0,59,-99.99,,,-99.99,,2013-04-14 11:22:00,
2013-04-14 06:32:00,53.0,39.0,-100.00,South,175,9.0,10.0,59,-99.99,,,-99.99,,2013-04-14 11:32:00,
2013-04-14 06:42:00,54.0,39.0,-100.00,SSE,165,9.0,10.0,56,-99.99,,,-99.99,,2013-04-14 11:42:00,
2013-04-14 06:53:00,55.0,38.0,-100.00,SSE,155,6.0,10.0,54,-99.99,,,-99.99,,2013-04-14 11:53:00,
2013-04-14 07:02:00,55.0,38.0,-100.00,SSE,155,6.0,10.0,54,-99.99,,,-99.99,,2013-04-14 12:02:00,
2013-04-14 07:12:00,54.0,38.0,-100.00,South,175,4.0,8.0,54,-99.99,,,-99.99,,2013-04-14 12:12:00,
2013-04-14 07:22:00,54.0,38.0,-100.00,SE,145,6.0,9.0,55,-99.99,,,-99.99,,2013-04-14 12:22:00,
2013-04-14 07:32:00,54.0,38.0,-100.00,SE,145,6.0,9.0,55,-99.99,,,-99.99,,2013-04-14 12:32:00,
2013-04-14 07:42:00,54.0,38.0,-100.00,SSE,155,4.0,8.0,56,-99.99,,,-99.99,,2013-04-14 12:42:00,
2013-04-14 07:52:00,54.0,39.0,-100.00,SSE,155,6.0,8.0,56,-99.99,,,-99.99,,2013-04-14 12:52:00,
2013-04-14 08:02:00,54.0,39.0,-100.00,SSE,155,6.0,8.0,56,-99.99,,,-99.99,,2013-04-14 13:02:00,
2013-04-14 08:12:00,55.0,39.0,-100.00,SSE,155,6.0,8.0,54,-99.99,,,-99.99,,2013-04-14 13:12:00,
2013-04-14 08:22:00,56.0,39.0,-100.00,SE,135,4.0,8.0,53,-99.99,,,-99.99,,2013-04-14 13:22:00,
2013-04-14 08:32:00,56.0,39.0,-100.00,SE,135,4.0,8.0,53,-99.99,,,-99.99,,2013-04-14 13:32:00,
2013-04-14 08:42:00,57.0,39.0,-100.00,SSE,155,12.0,14.0,51,-99.99,,,-99.99,,2013-04-14 13:42:00,
2013-04-14 08:52:00,58.0,39.0,-100.00,SE,125,4.0,6.0,49,-99.99,,,-99.99,,2013-04-14 13:52:00,
2013-04-14 09:02:00,58.0,39.0,-100.00,SE,125,4.0,6.0,49,-99.99,,,-99.99,,2013-04-14 14:02:00,
2013-04-14 09:12:00,59.0,39.0,-100.00,SSE,155,10.0,12.0,47,-99.99,,,-99.99,,2013-04-14 14:12:00,
2013-04-14 09:22:00,60.0,39.0,-100.00,SSE,165,3.0,4.0,46,-99.99,,,-99.99,,2013-04-14 14:22:00,
2013-04-14 09:32:00,60.0,39.0,-100.00,SSE,165,3.0,4.0,46,-99.99,,,-99.99,,2013-04-14 14:32:00,
2013-04-14 09:42:00,61.0,39.0,-100.00,South,185,4.0,8.0,44,-99.99,,,-99.99,,2013-04-14 14:42:00,
2013-04-14 09:53:00,62.0,39.0,-100.00,South,175,10.0,16.0,42,-99.99,,,-99.99,,2013-04-14 14:53:00,
2013-04-14 10:02:00,62.0,39.0,-100.00,South,175,10.0,16.0,42,-99.99,,,-99.99,,2013-04-14 15:02:00,
2013-04-14 10:12:00,64.0,39.0,-100.00,SSE,165,1.0,3.0,41,-99.99,,,-99.99,,2013-04-14 15:12:00,
2013-04-14 10:22:00,64.0,40.0,-100.00,SSE,165,9.0,14.0,40,-99.99,,,-99.99,,2013-04-14 15:22:00,
2013-04-14 10:33:00,64.0,40.0,-100.00,SSE,165,9.0,14.0,40,-99.99,,,-99.99,,2013-04-14 15:33:00,
2013-04-14 10:43:00,66.0,39.0,-100.00,SE,130,6.0,11.0,38,-99.99,,,-99.99,,2013-04-14 15:43:00,
2013-04-14 10:53:00,66.0,39.0,-100.00,SSE,150,12.0,18.0,37,-99.99,,,-99.99,,2013-04-14 15:53:00,
2013-04-14 11:04:00,66.0,39.0,-100.00,SSE,150,12.0,18.0,37,-99.99,,,-99.99,,2013-04-14 16:04:00,
2013-04-14 11:13:00,67.0,40.0,-100.00,SSE,160,10.0,12.0,37,-99.99,,,-99.99,,2013-04-14 16:13:00,
2013-04-14 11:22:00,67.0,39.0,-100.00,SSE,165,11.0,16.0,36,-99.99,,,-99.99,,2013-04-14 16:22:00,
2013-04-14 11:33:00,67.0,39.0,-100.00,SSE,165,11.0,16.0,36,-99.99,,,-99.99,,2013-04-14 16:33:00,
2013-04-14 11:43:00,68.0,40.0,-100.00,SSE,155,10.0,18.0,35,-99.99,,,-99.99,,2013-04-14 16:43:00,
2013-04-14 11:53:00,69.0,39.0,-100.00,SE,125,1.0,6.0,33,-99.99,,,-99.99,,2013-04-14 16:53:00,
2013-04-14 12:02:00,69.0,39.0,-100.00,SE,125,1.0,6.0,33,-99.99,,,-99.99,,2013-04-14 17:02:00,
2013-04-14 12:13:00,69.0,38.0,-100.00,SSE,150,9.0,12.0,32,-99.99,,,-99.99,,2013-04-14 17:13:00,
2013-04-14 12:22:00,71.0,39.0,-100.00,SE,125,6.0,10.0,32,-99.99,,,-99.99,,2013-04-14 17:22:00,
2013-04-14 12:32:00,71.0,39.0,-100.00,SE,125,6.0,10.0,32,-99.99,,,-99.99,,2013-04-14 17:32:00,
2013-04-14 12:42:00,71.0,40.0,-100.00,SE,125,4.0,10.0,32,-99.99,,,-99.99,,2013-04-14 17:42:00,
2013-04-14 12:53:00,72.0,40.0,-100.00,SE,145,9.0,16.0,31,-99.99,,,-99.99,,2013-04-14 17:53:00,
2013-04-14 13:02:00,72.0,40.0,-100.00,SE,145,9.0,16.0,31,-99.99,,,-99.99,,2013-04-14 18:02:00,
2013-04-14 13:12:00,73.0,40.0,-100.00,South,175,10.0,14.0,31,-99.99,,,-99.99,,2013-04-14 18:12:00,
2013-04-14 13:22:00,73.0,40.0,-100.00,SE,140,3.0,12.0,30,-99.99,,,-99.99,,2013-04-14 18:22:00,
2013-04-14 13:32:00,73.0,40.0,-100.00,SE,140,3.0,12.0,30,-99.99,,,-99.99,,2013-04-14 18:32:00,
2013-04-14 13:43:00,74.0,39.0,-100.00,South,175,10.0,16.0,29,-99.99,,,-99.99,,2013-04-14 18:43:00,
2013-04-14 13:53:00,74.0,41.0,-100.00,SSE,160,8.0,14.0,30,-99.99,,,-99.99,,2013-04-14 18:53:00,
2013-04-14 14:03:00,74.0,41.0,-100.00,SSE,160,8.0,14.0,30,-99.99,,,-99.99,,2013-04-14 19:03:00,
2013-04-14 14:12:00,75.0,41.0,-100.00,SSE,155,10.0,14.0,30,-99.99,,,-99.99,,2013-04-14 19:12:00,
2013-04-14 14:22:00,74.0,41.0,-100.00,South,170,18.0,24.0,30,-99.99,,,-99.99,,2013-04-14 19:22:00,
2013-04-14 14:32:00,74.0,41.0,-100.00,South,170,18.0,24.0,30,-99.99,,,-99.99,,2013-04-14 19:32:00,
2013-04-14 14:42:00,74.0,41.0,-100.00,SSE,165,16.0,27.0,30,-99.99,,,-99.99,,2013-04-14 19:42:00,
2013-04-14 14:53:00,75.0,41.0,-100.00,South,170,14.0,23.0,30,-99.99,,,-99.99,,2013-04-14 19:53:00,
2013-04-14 15:02:00,75.0,41.0,-100.00,South,170,14.0,23.0,30,-99.99,,,-99.99,,2013-04-14 20:02:00,
2013-04-14 15:12:00,75.0,42.0,-100.00,SE,145,14.0,21.0,30,-99.99,,,-99.99,,2013-04-14 20:12:00,
2013-04-14 15:22:00,74.0,40.0,-100.00,SSE,160,18.0,24.0,29,-99.99,,,-99.99,,2013-04-14 20:22:00,
2013-04-14 15:33:00,74.0,40.0,-100.00,SSE,160,18.0,24.0,29,-99.99,,,-99.99,,2013-04-14 20:33:00,
2013-04-14 15:43:00,75.0,40.0,-100.00,SSE,160,10.0,14.0,29,-99.99,,,-99.99,,2013-04-14 20:43:00,
2013-04-14 15:52:00,75.0,41.0,-100.00,SE,140,6.0,21.0,29,-99.99,,,-99.99,,2013-04-14 20:52:00,
2013-04-14 16:02:00,75.0,41.0,-100.00,SE,140,6.0,21.0,29,-99.99,,,-99.99,,2013-04-14 21:02:00,
2013-04-14 16:12:00,76.0,41.0,-100.00,South,170,14.0,21.0,29,-99.99,,,-99.99,,2013-04-14 21:12:00,
2013-04-14 16:23:00,75.0,41.0,-100.00,SE,125,10.0,14.0,29,-99.99,,,-99.99,,2013-04-14 21:23:00,
2013-04-14 16:33:00,75.0,41.0,-100.00,SE,125,10.0,14.0,29,-99.99,,,-99.99,,2013-04-14 21:33:00,
2013-04-14 16:43:00,76.0,43.0,-100.00,SSE,165,14.0,18.0,31,-99.99,,,-99.99,,2013-04-14 21:43:00,
2013-04-14 16:53:00,74.0,42.0,-100.00,SE,145,16.0,21.0,32,-99.99,,,-99.99,,2013-04-14 21:53:00,
2013-04-14 17:03:00,74.0,42.0,-100.00,SE,145,16.0,21.0,32,-99.99,,,-99.99,,2013-04-14 22:03:00,
2013-04-14 17:13:00,75.0,44.0,-100.00,SE,130,10.0,14.0,34,-99.99,,,-99.99,,2013-04-14 22:13:00,
2013-04-14 17:23:00,73.0,45.0,-100.00,South,180,14.0,27.0,37,-99.99,,,-99.99,,2013-04-14 22:23:00,
2013-04-14 17:33:00,73.0,45.0,-100.00,South,180,14.0,27.0,37,-99.99,,,-99.99,,2013-04-14 22:33:00,
2013-04-14 17:43:00,73.0,47.0,-100.00,SSE,165,6.0,14.0,39,-99.99,,,-99.99,,2013-04-14 22:43:00,
2013-04-14 17:53:00,73.0,46.0,-100.00,SSE,160,10.0,24.0,39,-99.99,,,-99.99,,2013-04-14 22:53:00,
2013-04-14 18:02:00,73.0,46.0,-100.00,SSE,160,10.0,24.0,39,-99.99,,,-99.99,,2013-04-14 23:02:00,
2013-04-14 18:12:00,73.0,46.0,-100.00,SSE,155,9.0,12.0,38,-99.99,,,-99.99,,2013-04-14 23:12:00,
2013-04-14 18:22:00,73.0,46.0,-100.00,SSE,150,14.0,21.0,38,-99.99,,,-99.99,,2013-04-14 23:22:00,
2013-04-14 18:33:00,73.0,46.0,-100.00,SSE,150,14.0,21.0,38,-99.99,,,-99.99,,2013-04-14 23:33:00,
2013-04-14 18:43:00,72.0,45.0,-100.00,SSE,150,23.0,33.0,38,-99.99,,,-99.99,,2013-04-14 23:43:00,
2013-04-14 18:53:00,71.0,44.0,-100.00,SSE,155,16.0,31.0,38,-99.99,,,-99.99,,2013-04-14 23:53:00,
2013-04-14 19:02:00,71.0,44.0,-100.00,SSE,155,16.0,31.0,38,-99.99,,,-99.99,,2013-04-15 00:02:00,
2013-04-14 19:12:00,71.0,43.0,-100.00,SSE,160,10.0,14.0,37,-99.99,,,-99.99,,2013-04-15 00:12:00,
2013-04-14 19:23:00,70.0,42.0,-100.00,SE,135,14.0,26.0,37,-99.99,,,-99.99,,2013-04-15 00:23:00,
2013-04-14 19:33:00,70.0,42.0,-100.00,SE,135,14.0,26.0,37,-99.99,,,-99.99,,2013-04-15 00:33:00,
2013-04-14 19:42:00,70.0,42.0,-100.00,SE,145,19.0,29.0,37,-99.99,,,-99.99,,2013-04-15 00:42:00,
2013-04-14 19:52:00,69.0,42.0,-100.00,SE,130,10.0,21.0,38,-99.99,,,-99.99,,2013-04-15 00:52:00,
2013-04-14 20:02:00,69.0,42.0,-100.00,SE,130,10.0,21.0,38,-99.99,,,-99.99,,2013-04-15 01:02:00,
2013-04-14 20:12:00,68.0,42.0,-100.00,SE,135,12.0,16.0,39,-99.99,,,-99.99,,2013-04-15 01:12:00,
2013-04-14 20:23:00,67.0,42.0,-100.00,SE,130,10.0,18.0,40,-99.99,,,-99.99,,2013-04-15 01:23:00,
2013-04-14 20:32:00,67.0,42.0,-100.00,SE,130,10.0,18.0,40,-99.99,,,-99.99,,2013-04-15 01:32:00,
2013-04-14 20:42:00,67.0,42.0,-100.00,SSE,155,12.0,18.0,40,-99.99,,,-99.99,,2013-04-15 01:42:00,
2013-04-14 20:52:00,66.0,42.0,-100.00,SE,135,4.0,9.0,41,-99.99,,,-99.99,,2013-04-15 01:52:00,
2013-04-14 21:03:00,66.0,42.0,-100.00,SE,135,4.0,9.0,41,-99.99,,,-99.99,,2013-04-15 02:03:00,
2013-04-14 21:12:00,66.0,42.0,-100.00,SE,135,9.0,14.0,41,-99.99,,,-99.99,,2013-04-15 02:12:00,
2013-04-14 21:22:00,65.0,41.0,-100.00,ESE,115,6.0,11.0,42,-99.99,,,-99.99,,2013-04-15 02:22:00,
2013-04-14 21:32:00,65.0,41.0,-100.00,ESE,115,6.0,11.0,42,-99.99,,,-99.99,,2013-04-15 02:32:00,
2013-04-14 21:42:00,65.0,42.0,-100.00,ESE,120,6.0,10.0,43,-99.99,,,-99.99,,2013-04-15 02:42:00,
2013-04-14 21:53:00,64.0,42.0,-100.00,SE,135,10.0,14.0,45,-99.99,,,-99.99,,2013-04-15 02:53:00,
2013-04-14 22:03:00,64.0,42.0,-100.00,SE,135,10.0,14.0,45,-99.99,,,-99.99,,2013-04-15 03:03:00,
2013-04-14 22:12:00,64.0,43.0,-100.00,SE,130,16.0,21.0,46,-99.99,,,-99.99,,2013-04-15 03:12:00,
2013-04-14 22:22:00,64.0,42.0,-100.00,SE,140,10.0,23.0,46,-99.99,,,-99.99,,2013-04-15 03:22:00,
2013-04-14 22:33:00,64.0,42.0,-100.00,SE,140,10.0,23.0,46,-99.99,,,-99.99,,2013-04-15 03:33:00,
2013-04-14 22:43:00,63.0,43.0,-100.00,SE,140,9.0,11.0,48,-99.99,,,-99.99,,2013-04-15 03:43:00,
2013-04-14 22:55:00,63.0,43.0,-100.00,ESE,120,2.0,6.0,49,-99.99,,,-99.99,,2013-04-15 03:55:00,
2013-04-14 23:03:00,63.0,43.0,-100.00,ESE,120,2.0,6.0,49,-99.99,,,-99.99,,2013-04-15 04:03:00,
2013-04-14 23:13:00,62.0,44.0,-100.00,SE,125,8.0,12.0,51,-99.99,,,-99.99,,2013-04-15 04:13:00,
2013-04-14 23:23:00,62.0,44.0,-100.00,SE,145,6.0,10.0,52,-99.99,,,-99.99,,2013-04-15 04:23:00,
2013-04-14 23:31:00,61.0,46.0,-100.00,SSE,155,6.0,9.0,57,-99.99,,,-99.99,,2013-04-15 04:31:00,
2013-04-14 23:33:00,62.0,44.0,-100.00,SE,145,6.0,10.0,52,-99.99,,,-99.99,,2013-04-15 04:33:00,
2013-04-14 23:42:00,62.0,45.0,-100.00,SSE,155,10.0,16.0,54,-99.99,,,-99.99,,2013-04-15 04:42:00,
2013-04-14 23:53:00,61.0,45.0,-100.00,SSE,155,10.0,14.0,55,-99.99,,,-99.99,,2013-04-15 04:53:00,